FLOCK 4S-26 (47497 NORAD) Tracking and Keplerian Element Data

This shows tracking and keplerian element data for the satellite.

Feedback or suggestion? Click here.




ElementValue
Catalog47497
NameFLOCK 4S-26
Epoch Orbit1262
Epoch Day106.10541835
Epoch Year2021
RAAN168.3729
Inclination97.4923
Eccentricity0.0009836
Argument of Perigee321.8136
Mean Anonmoly38.2397
Mean Motion15.12617776
Decay Rate6.29E-06
L11 47497U 21006CN 21106.10541835 .00000629 00000-0 39659-4 0 9990
L22 47497 97.4923 168.3729 0009836 321.8136 38.2397 15.12617776 12629

Live tracking and technical data element details for FLOCK 4S-26 (NORAD 47497). FLOCK 4S-26 can be tracked NOW for your location showing map with azimuth and elevation plus other details from your city location.

Track the satellite on the map from your city or location and see movement details for azimuth, elevation, latitude, longitude, range, height, and movement on the map or in text.







IsCatalogInMostPopularTable: catalog: 47497, numindb: 20
Update: records affected: 1



GetName: 47497 FLOCK 4S-26

Hit Count: updated at: Fri, 16 Apr 2021 11:38:56 GMT